GFSSW_prec_cloud_021.txt.gz
Cloud_Cover
1 0 0 0 0 0 0 0 0 0 0 0 0 0 0 0 0 0 0 0 0 0 4 0 0 4 5 0 0 8 65 100 96 98 2 4 5 35 5 17 5 49 5 1 0
6 0 0 0 0 0 0 0 0 0 0 0 0 0 0 3 0 0 0 0 0 0 0 0 0 2 5 4 0 89 100 98 25 100 9 5 5 5 3 0 0 0 0 0 0
0 0 0 0 0 0 0 0 0 0 0 0 0 0 0 0 0 0 0 0 0 0 0 0 0 0 3 5 1 68 92 66 2 24 90 2 5 5 5 1 0 0 0 0 0
0 0 0 0 0 0 0 0 0 0 0 0 0 0 0 0 0 0 0 0 0 0 0 0 0 0 5 4 4 8 75 89 100 2 97 5 44 5 2 26 1 0 0 0 0
0 0 0 0 0 0 0 0 0 0 0 0 0 0 0 0 0 0 0 0 0 0 0 0 0 4 5 1 7 5 79 23 4 2 27 47 50 6 4 1 0 0 0 0 0
0 0 0 0 0 0 0 0 0 0 0 0 10 10 0 0 0 0 0 0 0 0 0 0 0 4 5 2 10 18 4 5 1 4 5 59 28 4 3 0 0 0 0 0 2
4 0 0 0 0 0 0 0 0 0 0 28 22 1 0 0 0 0 0 0 0 0 0 0 0 0 5 0 0 5 0 4 0 5 5 4 13 5 2 0 0 0 0 1 2
0 0 0 0 0 0 0 0 0 0 40 30 33 0 0 0 0 0 0 0 0 0 0 0 0 0 0 2 5 0 4 55 13 1 3 0 22 0 1 0 0 0 0 0 0
0 0 0 0 0 0 0 0 0 0 0 0 6 0 0 0 0 0 0 0 0 0 0 0 0 0 0 0 2 3 8 13 100 1 3 1 100 4 0 0 2 0 0 0 0
0 0 0 0 0 0 0 0 0 30 18 0 0 0 0 0 0 0 0 0 0 0 0 0 0 0 0 0 0 20 5 66 24 3 5 0 94 8 0 0 0 0 0 0 0
0 0 0 0 0 0 0 0 0 0 0 0 0 0 0 0 0 0 0 0 0 0 0 0 0 0 0 0 1 5 100 85 100 7 1 5 34 2 0 0 0 0 0 0 0
0 0 0 0 0 0 2 0 0 0 0 0 0 0 0 0 0 0 0 0 0 0 0 0 0 0 0 0 0 4 100 92 100 75 52 41 94 100 0 0 0 4 0 0 0
0 0 0 0 0 0 0 0 0 0 0 0 0 0 0 0 0 0 0 0 0 0 0 0 0 0 0 0 0 0 30 100 89 72 64 86 94 99 90 1 0 0 0 0 0
0 0 0 0 0 0 0 0 0 0 0 0 0 0 0 0 0 0 0 0 0 0 0 0 0 0 0 0 0 0 4 73 100 68 100 5 99 73 33 5 0 0 0 0 0
0 1 2 0 0 0 0 2 0 0 0 0 5 2 0 0 0 0 0 0 0 0 0 0 0 0 0 0 0 0 5 5 75 100 100 67 78 99 100 36 5 0 0 0 0
5 5 5 5 5 0 0 5 4 0 0 0 0 0 0 0 0 0 0 0 0 0 0 0 0 0 0 0 0 0 4 17 32 100 81 100 82 12 100 100 14 33 1 0 0
58 71 17 5 5 4 0 0 0 0 3 3 4 0 0 1 0 0 0 0 0 0 0 0 0 0 2 0 0 0 0 16 98 100 52 100 83 100 50 42 42 2 88 2 0
5 5 5 5 5 5 3 0 0 4 35 3 5 5 0 0 0 0 0 0 0 0 0 0 0 5 1 5 1 0 0 3 8 90 98 99 100 41 86 44 100 99 58 100 28
19 18 46 7 7 5 3 0 8 100 100 12 4 4 14 5 1 0 0 0 0 0 0 0 0 0 0 4 0 0 0 0 5 83 96 99 56 96 100 96 37 4 2 5 51
100 87 52 90 80 36 5 72 73 99 99 21 5 2 4 5 5 1 0 0 0 0 0 0 0 0 3 0 0 0 0 0 1 47 100 99 87 82 83 1 5 5 5 5 3
89 29 6 31 6 5 3 17 5 6 40 100 98 11 0 2 4 5 1 1 0 0 0 0 0 0 0 3 5 4 0 0 3 5 48 100 100 100 100 49 3 0 1 5 5
46 76 9 65 5 5 5 5 5 5 5 7 7 100 98 2 0 0 4 5 0 0 0 0 0 0 0 0 2 5 0 0 2 0 5 78 100 100 61 69 5 5 65 87 81
5 4 1 2 0 0 1 2 5 6 5 10 4 100 100 51 2 0 0 5 2 0 0 0 0 1 1 0 0 0 0 2 0 5 4 27 2 98 100 89 49 5 2 26 97
24 4 72 99 53 9 2 28 100 100 96 22 9 76 7 5 17 2 5 19 6 0 0 0 0 0 0 0 1 0 0 0 0 0 9 3 63 94 65 63 26 2 0 5 12
77 20 94 34 100 100 92 100 100 100 100 100 100 95 69 99 100 87 56 100 44 4 17 0 0 0 0 5 5 4 0 0 0 0 0 2 53 4 46 29 48 4 0 0 0
84 92 57 7 99 55 100 100 98 100 100 100 100 100 100 100 100 100 100 100 95 22 5 5 0 1 4 3 5 5 39 5 0 0 0 0 3 24 7 100 93 5 0 0 0
36 38 100 16 92 100 52 100 100 100 100 100 100 100 100 100 100 100 100 100 97 100 39 51 5 1 1 5 91 41 1 0 34 42 1 0 0 5 20 14 14 9 3 0 0

GFSSW_prec_cloud_024.txt.gz
Cloud_Cover
2 0 0 0 0 0 0 0 0 0 0 0 0 0 0 0 0 0 0 0 0 0 0 0 0 0 0 0 40 100 99 54 100 100 45 46 4 35 86 2 71 21 72 11 5
1 0 0 0 0 0 0 0 0 0 0 0 0 0 0 0 0 0 0 0 0 0 0 0 0 0 0 0 74 72 100 92 15 100 10 4 1 0 4 5 23 31 29 0 2
0 0 0 0 0 0 0 0 0 0 0 0 0 0 0 4 0 0 0 0 0 0 0 0 0 0 0 0 80 100 100 100 5 78 76 6 3 5 27 1 3 46 0 0 0
0 0 0 0 0 0 0 0 0 0 0 0 0 0 0 0 0 0 0 0 0 0 0 0 0 0 0 2 24 77 100 95 100 31 3 33 13 0 55 65 1 0 0 0 0
0 0 0 0 0 0 0 0 0 0 0 0 0 10 0 0 0 0 0 0 0 0 0 0 0 0 0 3 9 94 15 70 99 2 16 97 73 0 19 90 3 0 0 0 0
0 0 0 0 0 0 0 0 0 0 0 0 4 22 0 0 0 0 0 0 0 0 0 0 0 0 0 2 3 82 38 78 84 9 4 78 68 0 0 3 0 0 0 0 0
0 0 0 0 0 0 0 0 0 0 0 1 83 1 0 0 0 0 0 0 0 0 0 0 0 0 0 0 0 10 97 34 3 0 5 26 98 3 0 1 5 0 0 0 0
0 0 0 0 0 0 0 0 0 0 0 49 43 0 0 0 0 0 0 0 0 0 0 0 0 0 0 0 0 0 18 16 56 73 3 0 100 15 2 0 0 0 0 0 0
0 0 0 0 0 0 0 0 0 0 0 3 8 0 0 0 0 0 0 0 0 0 0 0 0 0 0 0 0 0 3 7 100 81 45 0 94 100 52 0 2 0 0 0 0
0 0 0 0 0 0 0 0 0 30 16 0 0 0 0 0 0 0 0 0 0 0 0 0 0 0 0 0 0 0 4 12 49 20 62 48 100 92 9 30 0 0 0 0 0
0 0 0 0 0 0 0 0 0 0 0 0 0 0 0 0 0 0 0 0 0 0 0 0 0 0 0 0 0 0 50 10 100 74 100 100 87 100 3 72 0 3 0 0 0
0 0 0 0 0 0 0 0 0 0 0 0 0 0 0 0 0 0 0 0 0 0 0 0 0 0 0 0 0 0 25 85 100 70 55 89 4 0 88 0 0 0 0 0 0
0 0 0 0 0 0 0 0 0 0 0 0 0 0 0 0 0 0 0 0 0 0 0 0 0 0 0 0 0 0 0 19 99 85 44 82 87 2 24 1 0 0 0 0 0
0 0 0 0 0 0 0 0 0 0 0 0 0 0 0 0 0 0 0 0 0 0 0 0 0 0 0 0 0 0 0 10 100 100 4 93 96 2 94 14 0 0 0 0 0
0 0 0 0 0 0 0 0 0 0 0 0 0 0 0 0 0 0 0 0 0 0 0 0 0 0 0 0 0 0 0 0 87 99 100 54 97 22 100 89 11 0 0 0 0
0 3 26 5 79 4 4 1 0 0 0 1 0 0 0 0 0 0 0 0 0 0 0 0 0 0 0 0 0 0 0 0 4 74 89 13 78 62 10 100 100 82 1 0 0
5 1 2 2 4 37 6 5 1 4 76 5 0 0 0 0 0 0 0 0 0 0 0 0 0 0 0 5 0 0 0 0 0 16 48 92 100 12 100 99 93 100 99 5 0
1 5 6 76 5 0 0 0 0 97 100 8 2 0 0 0 0 0 0 0 0 0 0 0 0 0 0 0 5 2 0 0 0 0 5 0 46 9 64 4 97 100 90 96 8
0 0 0 5 11 46 34 4 5 26 8 5 5 0 0 0 0 0 0 0 0 0 0 0 0 0 0 0 0 21 0 0 0 3 5 20 68 0 27 53 27 62 97 100 87
0 0 0 0 2 5 2 13 8 9 5 2 0 0 0 0 0 0 0 0 0 0 0 0 0 0 0 0 0 0 51 1 0 1 2 1 29 100 73 4 100 99 99 87 100
0 0 0 0 0 0 0 1 2 5 5 2 0 1 0 0 1 2 0 0 0 0 0 0 0 0 0 0 0 0 0 0 0 0 0 0 1 2 88 67 54 10 99 89 76
5 4 2 44 4 5 3 0 0 0 0 0 0 0 0 0 1 5 3 0 5 5 0 0 0 0 0 0 0 0 0 0 0 0 0 0 0 86 100 97 88 10 100 73 0
15 4 0 42 28 5 8 1 1 4 5 8 63 2 0 0 0 0 4 60 17 1 0 0 0 0 0 0 0 0 0 0 0 1 0 0 1 5 97 92 100 100 20 2 0
60 15 0 71 58 81 47 18 82 14 67 76 100 100 42 1 5 0 0 4 100 100 40 9 2 0 0 0 1 0 0 0 0 0 0 0 1 5 100 12 91 99 100 100 12
62 62 81 45 23 100 100 92 42 24 100 100 100 100 100 12 7 5 5 6 43 98 85 65 2 0 0 0 26 0 4 0 0 0 0 0 0 5 40 100 50 96 53 42 0
96 97 44 57 7 5 83 100 100 58 100 97 100 100 100 68 84 5 41 77 100 59 100 29 0 0 0 45 13 76 6 5 0 0 0 0 0 5 35 82 100 100 99 98 12
91 92 65 56 78 99 69 96 100 100 100 93 100 76 100 100 68 5 8 5 4 58 100 5 0 2 0 22 100 85 6 32 50 0 0 0 0 0 58 13 68 99 100 96 99

GFSSW_prec_cloud_030.txt.gz
Cloud_Cover
0 0 0 0 0 0 0 0 0 0 0 0 0 0 0 0 0 0 0 0 0 0 0 0 1 10 5 3 71 83 100 100 100 100 100 100 78 59 20 2 0 1 0 0 0
0 0 0 0 0 0 0 0 0 0 0 0 0 0 2 5 14 0 0 0 0 0 0 0 0 0 0 1 3 82 97 100 100 100 52 10 41 98 91 4 0 4 0 0 0
0 0 0 0 0 0 0 0 0 0 0 0 0 0 0 9 0 0 0 0 0 0 0 0 0 0 0 0 1 84 84 98 43 93 5 9 5 0 2 0 0 0 0 0 0
0 0 0 0 0 0 0 0 0 0 0 0 0 0 0 25 0 0 0 0 0 0 0 0 0 0 0 3 96 7 56 100 99 62 5 5 4 0 2 0 0 0 0 0 0
0 0 0 0 0 0 0 0 0 0 0 0 0 9 2 0 0 0 0 0 0 0 0 0 0 0 0 0 19 15 15 70 62 84 19 5 45 6 3 2 0 0 0 0 0
0 0 0 0 0 0 0 0 0 0 0 0 1 62 14 0 0 0 0 0 0 0 0 0 0 0 0 0 0 0 5 13 68 99 80 26 100 5 5 1 0 0 0 0 0
0 0 0 0 0 0 0 0 0 0 0 0 2 22 0 0 0 0 0 0 0 0 0 0 0 0 0 0 0 0 0 0 6 7 100 20 12 48 10 64 0 0 0 0 0
0 0 0 0 0 0 0 0 0 0 0 0 15 21 2 0 0 0 0 0 0 0 0 0 0 0 0 0 0 0 0 0 0 4 8 29 7 0 1 21 0 0 0 0 0
1 0 1 0 0 0 0 0 0 0 0 20 24 2 0 0 0 0 0 0 0 0 0 0 0 0 0 0 0 0 0 0 0 76 16 18 59 2 1 2 0 0 0 0 0
5 5 0 0 0 0 0 0 0 0 0 1 0 0 0 0 0 0 0 0 0 0 0 0 0 0 0 0 0 0 0 0 0 51 4 5 12 5 6 80 81 0 0 0 0
0 0 0 0 0 0 0 18 0 0 0 0 0 0 0 0 0 0 0 0 0 0 0 0 0 0 0 0 0 0 0 0 3 19 84 94 22 84 5 5 2 0 0 0 0
0 0 0 0 0 0 0 0 0 0 0 0 0 0 0 0 0 0 0 0 0 0 0 0 0 0 0 0 0 0 0 0 0 1 5 39 16 37 20 5 0 1 0 0 0
0 0 0 0 0 0 0 0 0 0 0 0 0 0 0 0 0 0 0 0 0 0 0 0 0 0 0 0 0 0 0 0 0 0 3 72 78 7 6 5 4 1 0 0 0
0 0 0 0 0 0 0 0 0 0 0 1 0 0 0 0 0 0 0 0 0 0 0 0 0 0 0 0 0 0 0 3 2 4 33 47 62 39 5 51 6 0 1 0 0
0 0 0 3 17 0 0 0 0 0 0 0 0 0 0 0 0 0 0 0 0 0 0 0 0 0 0 0 0 0 0 0 3 0 0 41 4 5 66 5 5 0 0 0 0
0 0 0 10 0 0 0 0 0 0 0 4 0 0 0 0 0 0 0 0 0 0 0 0 0 0 0 0 0 0 0 0 4 32 1 0 0 1 3 2 0 3 4 0 0
0 0 0 0 4 0 0 0 0 0 0 0 0 0 2 1 0 0 0 0 0 0 0 0 0 0 0 0 0 0 0 0 0 2 0 0 2 0 0 1 0 4 0 0 4
0 0 0 0 0 0 0 0 0 0 0 0 0 0 0 0 0 0 0 0 0 0 0 0 0 0 0 0 0 0 0 0 0 0 0 0 1 0 4 1 5 3 0 4 2
0 0 0 0 0 0 0 0 0 0 0 0 0 0 0 0 0 0 0 0 3 0 0 0 0 0 0 0 0 0 0 0 0 0 0 0 0 0 0 5 0 2 5 19 76
55 22 0 0 0 0 0 0 0 0 0 0 0 0 0 0 0 0 0 0 0 4 5 0 0 0 0 0 0 0 0 0 0 0 0 0 0 5 0 0 0 0 1 1 62
83 4 0 0 0 0 0 0 0 0 0 0 0 0 0 0 0 0 2 5 3 2 0 7 0 0 0 0 0 0 0 0 0 0 0 0 0 4 3 0 0 0 5 12 4
6 8 0 0 0 3 4 0 0 0 0 0 0 0 0 0 0 0 0 5 2 1 0 3 5 16 0 0 0 0 0 0 0 0 0 0 20 0 0 2 5 5 19 83 72
66 3 0 12 13 36 100 100 100 79 20 0 1 1 0 0 0 0 0 5 0 0 0 0 4 53 15 38 12 4 2 0 0 0 0 0 2 0 0 3 0 2 3 48 99
34 44 0 74 100 96 95 100 100 99 92 49 5 5 4 0 0 0 0 4 1 0 0 0 0 4 100 77 1 5 5 0 5 0 0 0 0 0 0 0 0 5 69 16 44
58 22 5 12 94 100 100 100 100 100 70 62 74 55 5 3 4 1 0 0 0 0 0 0 0 0 14 5 5 5 5 2 5 0 0 46 0 0 0 0 0 5 5 20 9
100 72 93 89 49 43 100 100 98 83 62 57 72 5 4 5 5 5 3 0 0 0 2 0 0 0 1 21 5 5 4 4 18 5 6 8 0 0 0 0 0 5 4 0 4
98 100 100 100 100 36 19 100 100 100 100 100 97 48 5 2 0 4 22 8 7 76 95 23 0 0 0 0 0 0 29 52 5 5 5 4 40 6 0 0 0 0 0 4 5

GFSSW_prec_cloud_033.txt.gz
Cloud_Cover
0 0 2 0 0 0 0 0 0 0 0 0 0 0 0 0 18 0 0 0 0 0 0 0 0 0 1 2 10 35 100 100 100 100 100 100 29 48 100 100 100 81 8 0 0
2 3 0 0 0 0 0 0 0 0 0 0 0 0 5 14 29 0 0 0 0 0 0 0 0 0 5 1 4 5 13 99 98 100 100 91 68 5 100 100 96 96 8 0 0
0 0 0 0 0 0 0 0 0 0 0 0 0 0 5 23 2 0 0 0 0 0 0 0 0 0 0 0 0 5 5 97 100 100 100 100 95 54 95 29 1 0 0 0 0
0 0 0 0 0 0 0 0 0 0 0 0 0 0 0 54 0 0 0 0 0 0 0 0 0 0 0 0 0 7 36 5 74 92 100 100 94 96 53 5 0 0 0 0 0
0 0 0 0 0 0 0 0 0 0 0 0 0 0 2 0 0 0 0 0 0 0 0 0 0 0 0 0 7 33 76 6 100 41 96 81 50 62 8 65 0 0 0 0 0
0 0 0 0 0 0 0 0 0 0 0 0 8 6 21 0 0 0 0 0 0 0 0 0 0 0 0 4 38 71 70 37 30 100 6 5 5 1 0 8 88 0 0 0 0
0 0 0 0 0 0 0 0 0 0 0 9 25 21 0 0 0 0 0 0 0 0 0 0 0 0 0 1 6 20 34 97 56 81 36 63 4 0 0 0 63 3 0 0 0
0 0 0 0 0 0 0 0 0 0 0 1 21 12 0 0 0 0 0 0 0 0 0 0 0 0 0 0 0 0 4 15 5 8 5 8 1 0 4 2 8 0 0 0 0
0 0 0 0 0 0 0 0 0 0 0 8 18 24 0 0 0 0 0 0 0 0 0 0 0 0 0 0 0 0 0 0 2 3 2 0 0 0 3 7 98 0 0 0 0
0 0 0 0 0 0 0 0 0 7 21 1 0 3 0 0 0 0 0 0 0 0 0 0 0 0 0 0 0 0 0 0 0 0 0 0 0 5 5 10 100 0 0 0 0
5 3 0 4 0 0 0 0 0 0 0 0 0 0 0 0 0 0 0 0 0 0 0 0 0 0 0 0 0 0 0 0 5 3 0 0 0 5 60 16 38 5 5 0 0
5 5 1 0 0 0 0 0 0 0 0 0 0 0 0 0 0 0 0 0 0 0 0 0 0 0 0 0 0 0 0 0 5 0 0 0 2 5 14 98 5 69 4 0 0
5 4 1 8 5 3 0 0 0 0 0 0 0 0 0 0 0 0 0 0 0 0 0 0 0 0 0 0 0 0 0 0 5 4 5 0 0 1 4 48 6 2 1 0 0
0 0 0 17 0 0 0 0 0 0 0 0 0 0 0 0 0 0 0 0 0 0 0 0 0 0 0 0 0 0 0 0 3 5 5 0 0 0 2 5 2 5 0 0 0
0 0 0 0 9 1 0 0 0 0 0 0 0 0 0 0 0 0 0 0 0 0 0 0 0 0 0 0 0 0 0 0 0 5 4 0 0 0 1 2 0 0 0 1 2
0 0 0 11 6 0 0 0 0 0 0 0 0 0 0 0 0 0 0 0 0 0 0 0 0 0 0 0 0 0 0 0 0 2 2 0 0 0 0 0 0 0 0 0 5
0 0 0 0 10 0 0 0 0 0 0 0 0 0 0 0 0 0 0 0 0 0 0 0 0 0 0 0 0 0 0 0 0 0 4 0 0 0 0 0 0 0 2 2 0
0 0 0 0 0 0 0 0 0 0 0 0 0 0 0 0 0 0 0 0 0 0 0 0 0 0 0 0 0 0 0 0 0 0 0 0 0 0 0 3 5 0 5 5 3
0 0 3 0 0 0 0 0 0 0 0 0 0 0 0 0 0 0 0 0 0 0 0 0 0 0 0 0 0 0 0 0 0 0 0 0 4 0 0 4 5 0 5 4 5
40 100 8 0 0 0 0 0 0 0 0 0 0 0 0 0 0 0 0 0 0 0 0 0 0 0 0 0 0 0 0 0 0 0 0 0 2 1 0 0 1 0 0 0 1
1 9 0 0 0 0 1 0 0 0 0 0 0 0 0 0 0 0 0 0 0 0 0 0 0 0 0 1 2 0 0 0 0 0 0 0 5 53 24 0 0 0 0 0 0
9 10 0 0 0 1 64 95 4 0 0 0 0 0 0 0 0 0 0 0 0 0 0 0 5 4 0 6 0 0 0 0 0 0 0 0 0 0 4 2 0 0 0 0 0
72 72 0 1 60 35 98 100 100 81 5 36 7 0 0 0 0 0 0 0 0 0 0 3 2 5 1 5 14 8 4 0 4 0 0 0 0 0 0 0 0 4 3 0 0
26 62 4 77 48 89 69 100 100 93 31 98 88 54 18 5 5 2 0 0 0 0 0 0 2 5 5 1 8 28 6 5 0 0 0 0 0 0 0 0 0 0 1 5 0
95 55 78 12 66 5 97 91 79 100 100 90 98 84 14 5 5 5 5 0 0 0 0 0 0 1 5 5 1 94 98 5 5 5 0 100 1 2 0 0 0 0 0 0 5
92 99 100 100 100 100 55 100 100 100 82 100 97 75 18 5 5 5 5 4 0 0 0 0 0 0 0 4 4 0 6 66 96 72 5 94 5 83 6 0 0 0 0 0 0
67 98 100 100 100 84 100 94 100 100 100 100 95 6 68 10 5 2 4 5 5 4 4 0 0 0 0 0 0 0 81 99 77 15 95 20 84 94 10 0 0 0 0 0 0